AirNav   Everest Fuels
 
 1533 users online  

23IA Shenandoah Hospital Heliport
Shenandoah, Iowa, USA

GOING TO SHENANDOAH?


FAA INFORMATION EFFECTIVE 31 DECEMBER 2020

Location

FAA Identifier: 23IA
Lat/Long: 40-45-09.9800N 095-22-07.9500W
40-45.166333N 095-22.132500W
40.7527722,-95.3688750
(estimated)
Elevation: 1039 ft. / 317 m (estimated)
Variation: 05E (1995)
Time zone: UTC -6 (UTC -5 during Daylight Saving Time)
Zip code: 51601

Heliport Operations

Heliport use: Private use, MEDICAL USE.
Activation date: 12/1999
Control tower: no
ARTCC: MINNEAPOLIS CENTER
FSS: FORT DODGE FLIGHT SERVICE STATION
Attendance: UNATNDD
Segmented circle: no

Heliport Communications

WX AWOS-3 at SDA (2.0 nm W): 125.525 (712-246-4021)
WX AWOS-3 at ICL (16 nm E): 132.025 (712-542-3345)
WX AWOS-3P at RDK (16 nm N): 123.925 (712-623-3220)

Nearby radio navigation aids

VOR radial/distance  VOR name  Freq  Var
OVRr138/29.9OMAHA VORTAC116.3008E

 
NDB name  Hdg/Dist  Freq  Var  ID
NEBRASKA CITY063/24.134705EAFK .- ..-. -.-
PLATTSMOUTH110/27.232905EPMV .--. -- ...-

Heliport Services

Runway Information

Helipad H1

Dimensions: 40 x 40 ft. / 12 x 12 m
Surface: concrete
Traffic pattern: leftleft
Obstructions: bldg
12 FT BLDG 91 FT WEST OF HELIPAD.

Heliport Ownership and Management from official FAA records

Ownership: Privately-owned
Owner: SHENANDOAH MEMORIAL HOSITAL
300 PERSHING AVE.
SHENANDOAH, IA 51601
Phone 712-246-1230
Manager: KALEY NEAL
300 PERSHING AVE.
SHENANDOAH, IA 51601
Phone 712-246-7161
CDOUGHERTY@SMCHOSPITAL.COM

Additional Remarks

FOR CD CTC OMAHA APCH AT 402-682-4395.

Instrument Procedures

There are no published instrument procedures at 23IA.

Some nearby airports with instrument procedures:

KSDA - Shenandoah Municipal Airport (2 nm W)
KICL - Schenck Field Airport (16 nm E)
KRDK - Red Oak Municipal Airport (16 nm N)
K57 - Gould Peterson Municipal Airport (18 nm S)
KAFK - Nebraska City Municipal Airport (24 nm W)
 
Loc | Ops | Rwys | IFR | FBO | Links
Com | Nav | Svcs | Stats | Notes
Area around 23IA (Shenandoah Hospital Heliport)
 
Road maps at: MapQuest Bing Google
 
Aerial photo
No photo
 
Sectional chart

 
Airport distance calculator
Flying to Shenandoah Hospital Heliport? Find the distance to fly.

From to 23IA

Sunrise and sunset
Times for 15-Jan-2021
 Local
(UTC-6)
 Zulu
(UTC)
Morning civil twilight07:1413:14
Sunrise07:4513:45
Sunset17:1723:17
Evening civil twilight17:4823:48

Current date and time
Zulu (UTC)  15-Jan-2021 18:23:47
Local (UTC-6)  15-Jan-2021 12:23:47
 
METAR
KSDA 
2nm W 
151755Z AUTO 32022G31KT 1/2SM +UP VV005 M00/M00 A2960 RMK AO2
KICL 
16nm E 
151755Z AUTO 33024G31KT 1SM +UP CLR M00/M00 A2957 RMK AO2
KRDK 
16nm N 
151755Z AUTO 32023G33KT 1/2SM +UP BKN003 BKN014 M00/M00 A2958 RMK AO2
TAF
KOFF 
33nm NW 
1518/1624 32025G35KT 3200 -SN OVC025 620309 510018 QNH2966INS BECMG 1523/1524 32015KT 6000 -SN OVC030 620309 510018 QNH2981INS BECMG 1607/1608 32009KT 9999 NSW OVC030 620309 QNH2988INS TX00/1522Z TNM03/1610Z
NOTAMs
Click for the latest NOTAMs
NOTAMs are issued by the DoD/FAA and will open in a separate window not controlled by AirNav.

 

 
 

Would you like to see your business listed on this page?

 If your business provides an interesting product or service to pilots, flight crews, aircraft, or users of the Shenandoah Hospital Heliport, you should consider listing it here.  To start the listing process, click on the button below
 
Add a business
 

Other Pages about Shenandoah Hospital Heliport

Update a link
 
Copyright © AirNav, LLC. All rights reserved. Privacy Policy  Contact